Regional Weather Roundup
Issued by NWS Albany, NY

Home | Current Version | Previous Version | Text Only | Print | Product List | Glossary On
Versions: 1 2 3 4 5 6 7 8 9 10 11 12 13 14 15 16 17 18 19 20 21 22 23 24 25 26 27 28 29 30 31 32 33 34 35 36 37 38 39 40 41 42 43 44 45 46 47 48 49 50
000
ASUS41 KALY 022110
RWRALY

NEW YORK STATE HOURLY WEATHER ROUNDUP
NATIONAL WEATHER SERVICE ALBANY NY
500 PM EDT THU JUL 02 2015

NOTE: "FAIR" INDICATES FEW OR NO CLOUDS BELOW 12,000 FEET WITH NO
SIGNIFICANT WEATHER AND/OR NO OBSTRUCTIONS TO VISIBILITY.

NYZ032-033-038>043-046>054-057>066-NYZ062>081-022200-
EAST


CITY           SKY/WX    TMP DP  RH WIND       PRES   REMARKS
ALBANY         MOSUNNY   76  51  41 NW12      29.89F
GLENS FALLS    MOSUNNY   76  47  35 SW7G16    29.87F
POUGHKEEPSIE   CLOUDY    77  56  48 CALM      29.87F
NEWBURGH       PTSUNNY   75  59  57 W8        29.89
MONTGOMERY     PTSUNNY   77  58  51 CALM      29.87F
WHITE PLAINS   CLOUDY    77  58  51 NE5       29.87F
ISLIP          CLOUDY    72  60  66 SE6       29.87S
NEW YORK CITY  CLOUDY    77  56  48 S5        29.86F
CENTRAL PARK   CLOUDY    77  60  55 CALM      29.89F
$$

NYZ005>009-017-018-044>046-055-056-022200-
CENTRAL


CITY           SKY/WX    TMP DP  RH WIND       PRES   REMARKS
FULTON         SUNNY     68  44  42 W6        29.96S
SYRACUSE       MOSUNNY   72  47  40 NW12      29.94S
ROME           SUNNY     71  47  42 NW9       29.94S
ELMIRA         PTSUNNY   74  58  57 VRB7      29.92S
BINGHAMTON     PTSUNNY   69  53  56 N9        29.94S
MONTICELLO     PTSUNNY   73  55  53 W8        29.93F
$$

NYZ026>034-041>043-022200-
NORTH


CITY           SKY/WX    TMP DP  RH WIND       PRES   REMARKS
WATERTOWN      SUNNY     68  48  48 W9        29.95S
FORT DRUM      NOT AVBL
MASSENA        MOSUNNY   71  45  39 W12       29.91S
SARANAC LAKE   MOSUNNY   66  42  41 W8        29.92S
PLATTSBURGH    MOSUNNY   74  42  31 W7        29.88S
$$

NYZ001>004-010>016-019>021-022200-
WEST


CITY           SKY/WX    TMP DP  RH WIND       PRES   REMARKS
NIAGARA FALLS  MOSUNNY   70  45  40 N6        29.96F
BUFFALO        MOSUNNY   70  43  37 VRB3      29.96F
DUNKIRK        SUNNY     68  53  58 N8        29.97F
JAMESTOWN      SUNNY     66  48  52 N12       29.98S
WELLSVILLE     SUNNY     70  54  56 NW8       29.98S
ROCHESTER      MOSUNNY   70  44  39 N9        29.96F
PENN YAN       PTSUNNY   72  55  55 N8        29.96R
$$

             KEY
       WCI = WIND CHILL INDEX
       VSB = VISIBILITY
       HX  = HEAT INDEX
$$


USA.gov is the U.S. government's official web portal to all federal, state and local government web resources and services.